Weather History for KLCG - May, 2013

Change the Weather History Date:

Thursday, May 30, 2013

  Actual Average (KOFK) Record (KOFK)
Temperature  
Mean Temperature 70 °F 65 °F  
Max Temperature 80 °F 77 °F 105 °F (1934)
Min Temperature 60 °F 53 °F 35 °F (1947)
Degree Days  
Heating Degree Days 0 3  
Month to date heating degree days 186  
Since 1 July heating degree days 6609  
Cooling Degree Days 4 3  
Month to date cooling degree days 47  
Year to date cooling degree days 59  
Growing Degree Days 20 (Base 50)    
Moisture  
Dew Point 57 °F    
Average Humidity 72    
Maximum Humidity 97    
Minimum Humidity 33    
Precipitation  
Precipitation 0.15 in 0.14 in 1.96 in (1961)
Month to date precipitation 3.78  
Year to date precipitation 9.55  
Snow  
Snow 0.00 in 0.00 in - ()
Month to date snowfall 0.3  
Since 1 July snowfall 30.8  
Snow Depth -    
Sea Level Pressure  
Sea Level Pressure 29.52 in    
Wind  
Wind Speed 16 mph (SSW)    
Max Wind Speed 28 mph    
Max Gust Speed 33 mph    
Visibility 10 miles    
Events Rain , Thunderstorm    
T = Trace of Precipitation, MM = Missing Value Source: NWS Daily Summary

Daily Weather History Graph

Daily Weather History Graph

Search for Another Location

Airport or City:

Trip Planner

Search our weather history database for the weather conditions in past years. The results will help you decide how hot, cold, wet, or windy it might be!

Date:

Astronomy

May. 30, 2013 Rise Set
Actual Time 5:54 AM CDT 8:56 PM CDT
Civil Twilight 5:21 AM CDT 9:30 PM CDT
Nautical Twilight 4:38 AM CDT 10:13 PM CDT
Astronomical Twilight 3:47 AM CDT 11:04 PM CDT
Moon 12:54 AM CDT (5/30) 12:09 PM CDT (5/30)
Length of Visible Light 16h 08m
Length of Day
15h 01m
Waning Gibbous, 62% of the Moon is Illuminated
May 30
Waning Gibbous
May 31
Last Quarter
Jun 8
New
Jun 16
First Quarter
Jun 23
Full

Hourly Weather History & Observations

Time (CDT) Temp. Dew Point Humidity Pressure Visibility Wind Dir Wind Speed Gust Speed Precip Events Conditions
12:15 AM 64.4 °F 62.8 °F 94% 29.57 in 7.0 mi SSE 18.4 mph - N/A Rain Light Rain
12:35 AM 64.4 °F 63.0 °F 95% 29.56 in 5.0 mi South 19.6 mph 24.2 mph 0.03 in Rain Light Rain
12:55 AM 63.9 °F 62.6 °F 96% 29.53 in 10.0 mi South 16.1 mph - 0.04 in Rain Light Rain
1:15 AM 63.5 °F 62.4 °F 96% 29.51 in 10.0 mi South 12.7 mph - N/A   Overcast
1:35 AM 63.5 °F 62.6 °F 97% 29.49 in 10.0 mi South 8.1 mph - N/A   Overcast
1:55 AM 63.1 °F 61.9 °F 96% 29.48 in 10.0 mi SSE 12.7 mph - N/A   Overcast
2:15 AM 62.6 °F 61.2 °F 95% 29.47 in 10.0 mi South 10.4 mph - N/A   Scattered Clouds
2:35 AM 62.1 °F 60.8 °F 96% 29.46 in 10.0 mi SE 12.7 mph - N/A   Clear
2:55 AM 61.9 °F 60.8 °F 96% 29.46 in 10.0 mi SE 16.1 mph 21.9 mph N/A   Scattered Clouds
3:15 AM 62.6 °F 61.2 °F 95% 29.47 in 10.0 mi SSE 15.0 mph 19.6 mph N/A   Overcast
3:35 AM 62.2 °F 60.8 °F 95% 29.47 in 10.0 mi South 13.8 mph 18.4 mph N/A   Overcast
3:55 AM 62.4 °F 60.8 °F 94% 29.50 in 10.0 mi South 15.0 mph 20.7 mph N/A   Overcast
4:15 AM 62.1 °F 60.4 °F 94% 29.51 in 10.0 mi South 18.4 mph 21.9 mph N/A   Overcast
4:35 AM 61.9 °F 60.3 °F 94% 29.50 in 10.0 mi SSW 13.8 mph - N/A   Overcast
4:55 AM 61.7 °F 60.3 °F 95% 29.53 in 10.0 mi SSW 12.7 mph 17.3 mph N/A   Overcast
5:15 AM 61.7 °F 59.9 °F 94% 29.54 in 10.0 mi SSW 15.0 mph - N/A   Overcast
5:35 AM 61.0 °F 59.4 °F 94% 29.54 in 10.0 mi SSW 10.4 mph - N/A   Scattered Clouds
5:55 AM 60.3 °F 59.0 °F 96% 29.53 in 10.0 mi SSW 11.5 mph 17.3 mph N/A   Clear
6:15 AM 60.4 °F 58.3 °F 93% 29.54 in 10.0 mi SSW 13.8 mph - N/A   Clear
6:35 AM 60.4 °F 58.1 °F 92% 29.53 in 10.0 mi South 13.8 mph 20.7 mph N/A   Clear
6:55 AM 60.4 °F 58.3 °F 93% 29.54 in 10.0 mi South 11.5 mph - N/A   Clear
7:15 AM 61.0 °F 58.5 °F 91% 29.54 in 10.0 mi SSW 11.5 mph - N/A   Clear
7:35 AM 61.5 °F 58.6 °F 90% 29.55 in 10.0 mi SSW 10.4 mph - N/A   Clear
7:55 AM 62.1 °F 59.0 °F 90% 29.55 in 10.0 mi SSW 12.7 mph 19.6 mph N/A   Clear
8:15 AM 62.1 °F 59.0 °F 90% 29.55 in 10.0 mi SSW 16.1 mph 20.7 mph N/A   Scattered Clouds
8:35 AM 61.9 °F 59.0 °F 90% 29.55 in 10.0 mi SSW 15.0 mph - N/A   Mostly Cloudy
8:55 AM 62.1 °F 59.0 °F 90% 29.54 in 10.0 mi SW 12.7 mph - N/A   Overcast
9:15 AM 63.1 °F 59.9 °F 89% 29.54 in 10.0 mi SSW 16.1 mph 19.6 mph N/A   Overcast
9:35 AM 63.3 °F 59.9 °F 89% 29.54 in 10.0 mi SSW 17.3 mph 21.9 mph N/A   Overcast
9:55 AM 64.6 °F 61.0 °F 88% 29.54 in 10.0 mi SSW 16.1 mph 20.7 mph N/A   Mostly Cloudy
10:15 AM 65.5 °F 61.0 °F 85% 29.54 in 10.0 mi South 16.1 mph - N/A   Scattered Clouds
10:35 AM 66.2 °F 61.2 °F 84% 29.53 in 10.0 mi SSW 12.7 mph - N/A   Clear
10:55 AM 67.8 °F 61.7 °F 81% 29.53 in 10.0 mi SSW 18.4 mph - N/A   Clear
11:15 AM 69.3 °F 61.5 °F 76% 29.53 in 10.0 mi SW 21.9 mph 26.5 mph N/A   Clear
11:35 AM 70.5 °F 61.0 °F 72% 29.52 in 10.0 mi SW 16.1 mph 23.0 mph N/A   Clear
11:55 AM 72.3 °F 59.4 °F 64% 29.52 in 10.0 mi SW 25.3 mph 31.1 mph N/A   Clear
12:15 PM 72.7 °F 59.4 °F 63% 29.52 in 10.0 mi SSW 25.3 mph 29.9 mph N/A   Clear
12:35 PM 73.4 °F 58.6 °F 60% 29.53 in 10.0 mi SSW 24.2 mph 32.2 mph N/A   Scattered Clouds
12:55 PM 73.2 °F 59.2 °F 61% 29.53 in 10.0 mi SSW 27.6 mph 33.4 mph N/A   Scattered Clouds
1:15 PM 73.4 °F 59.0 °F 61% 29.52 in 10.0 mi South 26.5 mph 32.2 mph N/A   Scattered Clouds
1:35 PM 73.6 °F 59.0 °F 60% 29.52 in 10.0 mi South 25.3 mph 33.4 mph N/A   Scattered Clouds
1:55 PM 73.8 °F 59.5 °F 61% 29.51 in 10.0 mi South 23.0 mph 32.2 mph N/A   Scattered Clouds
2:15 PM 74.3 °F 58.6 °F 58% 29.52 in 10.0 mi South 24.2 mph 29.9 mph N/A   Scattered Clouds
2:35 PM 75.4 °F 58.1 °F 55% 29.51 in 10.0 mi South 25.3 mph 32.2 mph N/A   Scattered Clouds
2:55 PM 76.1 °F 55.6 °F 49% 29.50 in 10.0 mi SSW 21.9 mph 28.8 mph N/A   Scattered Clouds
3:15 PM 75.2 °F 56.7 °F 52% 29.50 in 10.0 mi SSW 19.6 mph 25.3 mph N/A   Mostly Cloudy
3:35 PM 76.3 °F 55.9 °F 49% 29.49 in 10.0 mi South 23.0 mph 28.8 mph N/A   Mostly Cloudy
3:55 PM 76.8 °F 56.7 °F 50% 29.48 in 10.0 mi SSW 21.9 mph 27.6 mph N/A   Mostly Cloudy
4:15 PM 78.3 °F 51.3 °F 39% 29.49 in 10.0 mi SW 18.4 mph 27.6 mph N/A   Mostly Cloudy
4:16 PM 78.8 °F 51.8 °F 39% 29.48 in 10.0 mi SW 18.4 mph 27.6 mph N/A   Mostly Cloudy
4:35 PM 78.3 °F 50.5 °F 38% 29.48 in 10.0 mi SW 16.1 mph 24.2 mph N/A   Scattered Clouds
4:55 PM 79.2 °F 50.7 °F 37% 29.48 in 10.0 mi SW 19.6 mph 23.0 mph N/A   Scattered Clouds
5:15 PM 79.9 °F 48.9 °F 34% 29.47 in 10.0 mi SW 17.3 mph 23.0 mph N/A   Scattered Clouds
5:35 PM 78.6 °F 48.9 °F 35% 29.47 in 10.0 mi SW 19.6 mph 26.5 mph N/A   Mostly Cloudy
5:55 PM 77.4 °F 50.5 °F 39% 29.47 in 10.0 mi SW 17.3 mph - N/A   Scattered Clouds
6:15 PM 79.2 °F 47.8 °F 33% 29.47 in 10.0 mi WSW 19.6 mph 27.6 mph N/A   Scattered Clouds
6:35 PM 77.9 °F 47.5 °F 34% 29.47 in 10.0 mi WSW 13.8 mph - N/A   Scattered Clouds
6:55 PM 77.9 °F 49.6 °F 37% 29.48 in 10.0 mi SW 12.7 mph - N/A   Clear
7:15 PM 77.9 °F 50.0 °F 38% 29.48 in 10.0 mi SSW 15.0 mph - N/A   Clear
7:35 PM 77.7 °F 49.1 °F 36% 29.48 in 10.0 mi SW 16.1 mph 20.7 mph N/A   Scattered Clouds
7:55 PM 75.4 °F 49.3 °F 40% 29.49 in 10.0 mi SW 10.4 mph - N/A   Scattered Clouds
8:15 PM 71.2 °F 54.3 °F 55% 29.52 in 7.0 mi West 19.6 mph 24.2 mph 0.04 in Rain , Thunderstorm Heavy Thunderstorms and Rain
8:35 PM 69.3 °F 55.2 °F 61% 29.51 in 10.0 mi Calm Calm - 0.07 in Thunderstorm Overcast
8:55 PM 68.0 °F 54.3 °F 62% 29.52 in 10.0 mi WSW 3.5 mph - 0.07 in Thunderstorm Scattered Clouds
9:15 PM 65.8 °F 59.4 °F 80% 29.52 in 10.0 mi South 5.8 mph - N/A   Clear
9:35 PM 68.9 °F 54.9 °F 61% 29.52 in 10.0 mi SSW 9.2 mph - N/A   Scattered Clouds
9:55 PM 68.0 °F 52.3 °F 57% 29.54 in 10.0 mi SW 13.8 mph 18.4 mph N/A   Mostly Cloudy
10:15 PM 67.3 °F 52.7 °F 59% 29.59 in 10.0 mi West 9.2 mph - N/A Rain , Thunderstorm Light Thunderstorms and Rain
10:35 PM 64.4 °F 55.2 °F 72% 29.57 in 10.0 mi Calm Calm - 0.04 in Rain Light Rain
10:55 PM 62.6 °F 56.8 °F 81% 29.56 in 10.0 mi SSE 10.4 mph - 0.04 in   Scattered Clouds
11:15 PM 62.4 °F 55.9 °F 79% 29.56 in 10.0 mi South 10.4 mph - N/A   Clear
11:35 PM 61.7 °F 55.6 °F 80% 29.57 in 10.0 mi SSW 6.9 mph - N/A   Clear
11:55 PM 62.1 °F 53.2 °F 73% 29.57 in 10.0 mi SW 6.9 mph - N/A   Clear